Weather History for KFWZ - September, 2013

Change the Weather History Date:

Monday, September 16, 2013

  Actual Average (KLND) Record (KLND)
Temperature  
Mean Temperature 56 °F 58 °F  
Max Temperature 66 °F 73 °F 91 °F (2000)
Min Temperature 46 °F 44 °F 23 °F (1965)
Degree Days  
Heating Degree Days 9 7  
Month to date heating degree days 73  
Since 1 July heating degree days 113  
Cooling Degree Days 0 1  
Month to date cooling degree days 25  
Year to date cooling degree days 470  
Growing Degree Days 6 (Base 50)    
Moisture  
Dew Point 45 °F    
Average Humidity 70    
Maximum Humidity 100    
Minimum Humidity 35    
Precipitation  
Precipitation 0.00 in 0.04 in 0.99 in (1923)
Month to date precipitation 0.45  
Year to date precipitation 9.33  
Snow  
Snow 0.00 in 0.10 in - ()
Month to date snowfall 0.7  
Since 1 July snowfall 0.7  
Since 1 September snowfall 0.7  
Snow Depth -    
Sea Level Pressure  
Sea Level Pressure 30.21 in    
Wind  
Wind Speed 6 mph (WSW)    
Max Wind Speed 16 mph    
Max Gust Speed 23 mph    
Visibility 8 miles    
Events Fog , Thunderstorm    
T = Trace of Precipitation, MM = Missing Value Source: NWS Daily Summary

Daily Weather History Graph

Daily Weather History Graph

Search for Another Location

Airport or City:

Trip Planner

Search our weather history database for the weather conditions in past years. The results will help you decide how hot, cold, wet, or windy it might be!

Date:

Astronomy

Sep. 16, 2013 Rise Set
Actual Time 6:56 AM MDT 7:22 PM MDT
Civil Twilight 6:28 AM MDT 7:50 PM MDT
Nautical Twilight 5:54 AM MDT 8:23 PM MDT
Astronomical Twilight 5:20 AM MDT 8:58 PM MDT
Moon 5:35 PM MDT (9/16) 3:43 AM MDT (9/16)
Length of Visible Light 13h 22m
Length of Day
12h 26m
Waxing Gibbous, 90% of the Moon is Illuminated
Sep 16
Waxing Gibbous
Sep 19
Full
Sep 26
Last Quarter
Oct 4
New
Oct 11
First Quarter

Hourly Weather History & Observations

Time (MDT) Temp. Windchill Dew Point Humidity Pressure Visibility Wind Dir Wind Speed Gust Speed Precip Events Conditions
12:15 AM 46.4 °F - 46.4 °F 100% 30.25 in 7.0 mi Calm Calm - N/A   Overcast
12:35 AM 46.4 °F 45.2 °F 46.4 °F 100% 30.25 in 0.5 mi South 3.5 mph - N/A Fog Fog
12:55 AM 48.2 °F - 46.4 °F 93% 30.24 in 1.2 mi WSW 3.5 mph - N/A   Overcast
1:15 AM 46.4 °F 45.2 °F 46.4 °F 100% 30.24 in 7.0 mi WSW 3.5 mph - N/A   Overcast
1:35 AM 48.2 °F - 46.4 °F 93% 30.23 in 10.0 mi WSW 3.5 mph - N/A   Overcast
1:55 AM 48.2 °F - 46.4 °F 93% 30.23 in 10.0 mi Calm Calm - N/A   Overcast
2:15 AM 48.2 °F - 46.4 °F 93% 30.23 in 10.0 mi Calm Calm - N/A   Overcast
2:35 AM 48.2 °F - 46.4 °F 93% 30.23 in 10.0 mi Calm Calm - N/A   Overcast
2:55 AM 48.2 °F - 46.4 °F 93% 30.23 in 7.0 mi Calm Calm - N/A   Overcast
3:15 AM 48.2 °F - 46.4 °F 93% 30.23 in 1.8 mi Calm Calm - N/A   Overcast
3:35 AM 48.2 °F - 46.4 °F 93% 30.23 in 0.8 mi SSW 3.5 mph - N/A   Overcast
3:55 AM 48.2 °F - 46.4 °F 93% 30.22 in 0.5 mi Calm Calm - N/A Fog Fog
4:15 AM 48.2 °F - 46.4 °F 93% 30.22 in 0.2 mi SSW 3.5 mph - N/A Fog Fog
4:35 AM 48.2 °F - 48.2 °F 100% 30.22 in 0.2 mi SSW 4.6 mph - N/A Fog Fog
4:55 AM 48.2 °F - 46.4 °F 93% 30.22 in 0.2 mi SSW 4.6 mph - N/A Fog Fog
5:15 AM 48.2 °F - 46.4 °F 93% 30.22 in 0.2 mi SSW 4.6 mph - N/A Fog Fog
5:35 AM 48.2 °F - 46.4 °F 93% 30.22 in 0.2 mi WSW 4.6 mph - N/A   Drizzle
5:55 AM 46.4 °F 42.4 °F 46.4 °F 100% 30.21 in 0.2 mi WSW 8.1 mph - N/A   Light Drizzle
6:15 AM 46.4 °F 42.4 °F 46.4 °F 100% 30.21 in 0.2 mi WSW 8.1 mph - N/A Fog Fog
6:35 AM 46.4 °F 44.3 °F 46.4 °F 100% 30.21 in 0.2 mi WSW 4.6 mph - N/A Fog Fog
6:55 AM 46.4 °F 42.9 °F 44.6 °F 93% 30.21 in 10.0 mi WSW 6.9 mph - N/A   Unknown
7:15 AM 46.4 °F - 44.6 °F 93% 30.22 in 10.0 mi Calm Calm - N/A   Unknown
7:35 AM 46.4 °F 42.9 °F 46.4 °F 100% 30.21 in 10.0 mi WSW 6.9 mph - N/A   Unknown
7:55 AM 48.2 °F - 46.4 °F 93% 30.21 in 10.0 mi WSW 9.2 mph - N/A   Overcast
8:15 AM 50.0 °F - 46.4 °F 87% 30.22 in 10.0 mi WSW 10.4 mph 16.1 mph N/A   Overcast
8:35 AM 51.8 °F - 44.6 °F 76% 30.21 in 10.0 mi WSW 12.7 mph 17.3 mph N/A   Overcast
8:55 AM 51.8 °F - 44.6 °F 76% 30.21 in 10.0 mi WSW 12.7 mph - N/A   Overcast
9:15 AM 53.6 °F - 46.4 °F 77% 30.22 in 10.0 mi WSW 11.5 mph 19.6 mph N/A   Overcast
9:35 AM 55.4 °F - 46.4 °F 72% 30.21 in 10.0 mi West 11.5 mph 16.1 mph N/A   Overcast
9:55 AM 55.4 °F - 46.4 °F 72% 30.22 in 10.0 mi SW 9.2 mph - N/A   Overcast
10:15 AM 55.4 °F - 48.2 °F 77% 30.23 in 10.0 mi SW 8.1 mph - N/A   Overcast
10:35 AM 55.4 °F - 50.0 °F 82% 30.23 in 10.0 mi SW 10.4 mph - N/A   Overcast
10:55 AM 57.2 °F - 50.0 °F 77% 30.23 in 10.0 mi SW 12.7 mph 18.4 mph N/A   Overcast
11:15 AM 59.0 °F - 48.2 °F 67% 30.23 in 10.0 mi SW 13.8 mph 19.6 mph N/A   Overcast
11:35 AM 59.0 °F - 48.2 °F 67% 30.23 in 10.0 mi SW 13.8 mph 18.4 mph N/A   Overcast
11:55 AM 60.8 °F - 44.6 °F 55% 30.23 in 10.0 mi WSW 13.8 mph - N/A   Overcast
12:15 PM 60.8 °F - 46.4 °F 59% 30.22 in 10.0 mi SW 13.8 mph - N/A   Overcast
12:35 PM 62.6 °F - 46.4 °F 55% 30.22 in 10.0 mi WSW 15.0 mph 19.6 mph N/A   Overcast
12:55 PM 62.6 °F - 44.6 °F 52% 30.21 in 10.0 mi WSW 16.1 mph 21.9 mph N/A   Overcast
1:15 PM 62.6 °F - 44.6 °F 52% 30.21 in 10.0 mi West 13.8 mph 21.9 mph N/A   Overcast
1:35 PM 62.6 °F - 42.8 °F 48% 30.22 in 10.0 mi WSW 11.5 mph 23.0 mph N/A   Overcast
1:55 PM 64.4 °F - 44.6 °F 49% 30.21 in 10.0 mi WSW 15.0 mph 23.0 mph N/A   Overcast
2:15 PM 64.4 °F - 42.8 °F 45% 30.21 in 10.0 mi WSW 16.1 mph 20.7 mph N/A   Overcast
2:35 PM 64.4 °F - 41.0 °F 42% 30.21 in 10.0 mi WSW 11.5 mph 21.9 mph N/A   Overcast
2:55 PM 66.2 °F - 41.0 °F 40% 30.20 in 10.0 mi West 13.8 mph 21.9 mph N/A   Overcast
3:15 PM 66.2 °F - 41.0 °F 40% 30.20 in 10.0 mi West 13.8 mph 21.9 mph N/A   Overcast
3:35 PM 66.2 °F - 39.2 °F 37% 30.19 in 10.0 mi WSW 12.7 mph 20.7 mph N/A   Overcast
3:55 PM 66.2 °F - 41.0 °F 40% 30.19 in 10.0 mi WSW 10.4 mph 19.6 mph N/A   Overcast
4:15 PM 66.2 °F - 41.0 °F 40% 30.19 in 10.0 mi WSW 15.0 mph 21.9 mph N/A   Overcast
4:35 PM 66.2 °F - 37.4 °F 35% 30.18 in 10.0 mi West 9.2 mph 20.7 mph N/A   Overcast
4:55 PM 66.2 °F - 41.0 °F 40% 30.19 in 10.0 mi WSW 13.8 mph 20.7 mph N/A   Overcast
5:15 PM 64.4 °F - 42.8 °F 45% 30.19 in 10.0 mi West 9.2 mph - N/A   Overcast
5:35 PM 62.6 °F - 42.8 °F 48% 30.19 in 10.0 mi West 5.8 mph - N/A   Overcast
5:55 PM 64.4 °F - 41.0 °F 42% 30.18 in 10.0 mi West 5.8 mph - N/A Thunderstorm Overcast
6:15 PM 62.6 °F - 41.0 °F 45% 30.18 in 10.0 mi West 10.4 mph 16.1 mph N/A   Overcast
6:35 PM 62.6 °F - 42.8 °F 48% 30.18 in 10.0 mi WSW 8.1 mph - N/A   Overcast
6:55 PM 62.6 °F - 42.8 °F 48% 30.18 in 10.0 mi WSW 6.9 mph - N/A   Overcast
7:15 PM 60.8 °F - 44.6 °F 55% 30.18 in 10.0 mi SW 4.6 mph - N/A   Overcast
7:35 PM 60.8 °F - 44.6 °F 55% 30.18 in 10.0 mi WSW 4.6 mph - N/A   Overcast
7:55 PM 59.0 °F - 46.4 °F 63% 30.18 in 10.0 mi SW 3.5 mph - N/A   Overcast
8:15 PM 59.0 °F - 44.6 °F 59% 30.18 in 10.0 mi WSW 5.8 mph - N/A   Overcast
8:35 PM 59.0 °F - 44.6 °F 59% 30.19 in 10.0 mi West 4.6 mph - N/A   Overcast
8:55 PM 59.0 °F - 44.6 °F 59% 30.20 in 10.0 mi West 6.9 mph - N/A   Overcast
9:15 PM 59.0 °F - 44.6 °F 59% 30.20 in 10.0 mi West 5.8 mph - N/A   Overcast
9:35 PM 57.2 °F - 44.6 °F 63% 30.20 in 10.0 mi West 4.6 mph - N/A   Overcast
9:55 PM 55.4 °F - 44.6 °F 67% 30.19 in 10.0 mi WSW 8.1 mph - N/A   Overcast
10:15 PM 55.4 °F - 44.6 °F 67% 30.20 in 10.0 mi WSW 8.1 mph - N/A   Overcast
10:35 PM 55.4 °F - 46.4 °F 72% 30.19 in 10.0 mi WSW 6.9 mph - N/A   Overcast
10:55 PM 55.4 °F - 46.4 °F 72% 30.19 in 10.0 mi WSW 6.9 mph - N/A   Overcast
11:15 PM 55.4 °F - 44.6 °F 67% 30.19 in 10.0 mi WSW 8.1 mph - N/A   Overcast
11:35 PM 55.4 °F - 44.6 °F 67% 30.19 in 10.0 mi WSW 8.1 mph - N/A   Overcast
11:55 PM 55.4 °F - 44.6 °F 67% 30.19 in 10.0 mi WSW 8.1 mph - N/A   Overcast